Location: Ago
(8.4667°N, 4.4833°E)
Time: 23:56:29
(UTC+00:00)

Centaur D AC-29 - Pass Details

Date: 18 September 2020
Orbit: 577 x 36260 km, 26.4° (Epoch: 20 October)

Event Time Altitude Azimuth Distance (km) Brightness Sun altitude
Rises 17:00:22 0° 263° (W) 3,019 6.8 9.0°
Reaches altitude 10° 17:01:54 10° 269° (W) 2,364 8.2 8.6°
Maximum altitude 17:06:34 54° 348° (NNW) 1,685 3.5 7.5°
Drops below altitude 10° 17:29:52 10° 63° (ENE) 10,500 6.8 1.7°
Sets 18:04:59 0° 69° (ENE) 20,093 8.1 -7.0°
